Probability
3 3 3 2 1 0 0 0 0 0 0 0 1 3 6 6 2 2 3 1 0 0 0 0 0 0 0 0 0 0 0 0 1 1 1 0 1 1
2 2 2 2 1 0 0 0 0 0 0 0 1 2 4 4 2 2 2 1 0 0 0 0 0 0 0 0 0 0 0 0 0 0 0 1 1 1
1 1 1 1 0 0 0 0 0 0 0 0 0 1 2 2 1 1 1 1 0 0 0 0 0 0 0 0 0 0 0 0 0 0 0 1 1 1
1 1 2 1 1 0 0 0 0 0 0 0 0 0 1 1 1 0 0 0 0 0 0 0 0 0 0 0 0 0 0 0 0 0 0 1 1 1
3 3 3 3 2 1 0 0 0 0 0 0 0 0 0 1 2 1 1 2 1 1 0 0 0 0 0 0 0 0 0 0 0 0 0 0 0 1
5 4 3 3 2 1 0 0 0 0 0 0 0 0 1 3 4 4 4 5 4 3 2 1 0 0 0 0 0 0 0 0 0 0 0 0 0 0
6 5 3 2 1 0 0 0 0 0 0 0 0 0 2 4 5 6 6 6 5 4 3 2 1 1 0 0 0 0 0 0 0 0 0 0 0 0
6 5 3 2 0 0 0 0 0 0 0 0 0 0 1 3 5 6 6 6 5 4 4 3 3 2 1 0 0 0 0 0 0 0 0 0 0 0
5 5 4 3 1 0 0 0 0 0 0 0 0 1 1 3 4 5 6 6 5 3 3 3 3 3 2 1 1 0 0 0 0 0 0 0 0 0
4 4 4 3 2 0 0 0 0 0 0 0 0 1 2 4 4 4 4 4 3 3 3 3 3 3 3 2 1 0 0 0 0 0 0 0 0 0
4 4 3 2 1 0 0 0 0 0 0 0 0 1 1 2 3 3 3 3 3 3 3 3 2 2 2 1 1 0 0 0 0 0 0 0 0 0
4 3 1 1 0 0 0 0 0 0 0 0 0 0 1 1 1 1 3 3 3 3 2 1 1 1 1 0 0 0 0 0 0 0 0 0 0 0
3 2 1 0 0 0 0 0 0 0 0 0 0 1 2 2 1 1 3 3 3 2 1 0 0 0 0 0 0 0 0 0 0 0 0 0 0 0
2 1 0 0 0 0 0 0 0 0 0 0 0 1 2 3 3 3 3 3 2 1 0 0 0 0 0 0 0 0 0 0 0 0 0 0 0 0
2 1 0 0 0 0 0 0 0 0 0 0 1 1 3 3 3 3 3 3 1 0 0 1 1 1 0 0 0 0 0 0 0 0 0 0 0 0
1 0 0 0 0 0 0 0 0 0 0 1 2 3 3 3 3 3 3 2 1 0 0 1 2 1 1 0 0 0 0 0 0 0 0 0 0 0
0 0 0 0 0 0 0 0 0 0 0 1 2 3 3 3 3 3 3 2 1 0 0 1 1 1 1 0 0 0 0 0 0 0 0 0 0 0
0 0 0 0 0 0 0 0 0 0 1 1 3 3 3 3 3 2 1 1 0 0 0 0 0 0 0 0 0 0 0 0 0 0 0 0 0 0
0 0 0 0 0 0 0 0 0 1 2 3 3 3 3 3 3 1 0 0 0 0 0 0 0 0 0 0 0 0 0 0 0 0 0 0 0 0
0 0 0 0 1 1 1 0 1 2 3 3 3 3 3 3 2 1 0 0 0 0 0 0 0 0 0 0 0 0 0 0 0 0 0 0 0 0
0 0 0 1 2 2 2 2 2 3 3 3 3 3 3 3 2 1 0 0 0 0 0 0 0 0 0 0 0 0 0 0 0 0 0 0 0 0
0 0 0 1 2 2 2 2 3 3 3 3 3 3 3 3 1 0 0 0 0 0 0 0 0 0 0 0 0 0 0 0 0 0 0 0 0 0
0 0 0 0 1 1 1 2 3 3 3 3 3 3 3 2 1 0 0 0 0 0 0 0 0 0 0 0 0 0 0 0 0 0 0 0 0 0
Wind_Speed
0 0 0 1 0 0 1 1 2 1 2 3 2 2 2 2 3 3 3 6 7 8 9 8 9 9 9 9 9 8 9 9 9 9 10 10 10 10
0 1 1 1 1 1 1 1 1 3 2 2 2 2 2 2 3 3 4 5 6 7 8 8 9 9 9 9 10 10 10 10 9 9 9 9 9 10
1 1 1 1 1 1 1 1 1 2 3 3 2 2 1 2 2 2 3 3 3 6 7 8 8 8 9 10 10 10 10 10 9 9 9 9 9 10
1 1 2 1 1 1 1 1 1 1 2 3 2 2 2 2 2 2 3 3 3 4 6 6 7 8 9 10 10 9 9 9 10 10 10 9 10 10
1 1 2 1 2 2 1 1 1 1 1 2 3 2 2 2 2 2 3 2 3 4 5 7 7 7 8 9 9 10 10 10 10 10 10 10 10 10
1 2 2 2 3 3 2 2 1 1 1 1 2 2 2 2 1 1 2 2 3 3 4 4 6 7 8 8 9 10 10 10 10 11 11 10 10 9
2 2 2 2 3 2 2 2 2 1 1 1 2 2 2 1 2 2 2 3 3 2 2 3 2 3 4 6 8 10 11 11 12 11 11 10 10 10
2 3 3 3 3 3 3 2 2 2 2 2 2 2 4 3 3 2 2 2 3 2 1 4 2 3 4 4 7 9 10 10 10 11 11 11 10 10
2 2 2 2 2 2 3 3 3 3 3 3 3 4 4 4 3 2 2 3 4 3 1 3 2 4 4 4 7 7 7 8 9 10 10 10 10 9
2 2 1 2 2 1 1 2 3 4 4 3 4 5 5 4 3 4 4 3 3 3 2 3 3 3 4 3 5 6 6 7 8 8 9 9 9 9
2 2 1 2 4 2 1 2 4 5 4 5 5 5 6 6 3 1 1 1 3 4 2 2 3 2 3 3 3 3 4 4 5 6 7 8 9 7
3 3 4 3 4 3 1 2 4 5 4 5 4 5 5 5 4 3 3 2 2 3 3 2 2 1 2 2 2 1 1 3 4 4 6 7 7 5
2 3 3 5 5 4 3 3 5 5 3 3 3 3 3 3 3 3 3 4 3 4 3 2 1 1 2 2 2 1 1 1 1 2 4 5 6 6
2 3 3 5 6 6 4 4 5 4 2 2 2 3 3 3 3 3 3 3 4 5 4 2 2 2 2 1 2 2 1 1 1 1 1 2 3 5
2 4 5 6 5 4 5 5 4 1 1 1 2 3 3 3 3 2 2 2 2 3 3 2 2 2 2 2 2 1 1 1 1 1 1 1 2 2
3 4 6 6 4 4 4 4 2 1 1 2 2 3 2 2 2 1 2 2 1 3 3 2 1 2 1 2 2 2 1 1 1 1 1 1 1 2
2 2 2 3 3 3 3 3 3 2 2 2 2 2 2 2 2 1 1 1 1 2 3 3 2 1 2 2 1 2 1 1 1 1 1 1 1 2
2 1 2 2 2 3 3 3 3 3 2 2 2 2 2 2 2 2 1 1 1 2 2 2 1 2 2 2 1 2 1 1 1 1 1 1 1 1
2 1 1 2 2 3 3 3 3 3 2 2 2 2 2 2 2 2 2 1 1 1 2 1 1 0 0 2 3 1 2 1 1 1 1 1 2 2
0 0 1 2 2 2 2 2 3 3 3 3 2 2 2 2 2 2 2 1 1 2 2 2 1 1 2 2 2 2 2 2 2 2 1 0 1 1
1 1 1 1 2 2 2 2 2 2 2 2 2 2 2 1 2 2 2 2 1 1 1 2 3 3 1 1 0 2 2 1 3 3 2 1 0 0
2 2 2 1 1 1 1 2 2 2 3 2 2 2 2 2 2 2 2 1 1 1 2 2 2 1 1 0 1 2 2 2 1 1 1 3 3 3
2 2 1 1 1 1 0 1 1 2 2 2 2 2 2 2 2 2 1 1 1 1 1 2 2 1 0 1 1 1 1 1 1 1 2 2 4 5
Wind_Direction
268 289 297 285 273 251 205 181 179 230 282 285 292 286 260 221 232 225 233 236 232 229 226 229 234 236 235 235 234 231 232 233 231 232 231 229 230 231
321 355 317 295 299 307 288 244 192 189 237 273 264 284 290 266 249 234 239 249 242 235 229 231 235 235 234 235 234 232 230 228 229 229 229 227 228 230
347 348 295 293 307 311 309 292 241 192 223 269 270 288 293 284 285 258 242 244 254 248 240 236 235 238 238 237 236 235 233 230 227 228 228 226 229 230
283 288 292 299 304 289 281 280 259 217 202 260 284 291 279 274 273 269 266 257 251 248 247 243 239 238 238 237 236 234 232 231 228 225 224 226 229 231
262 254 262 274 284 277 268 271 276 274 216 231 271 279 280 288 304 295 285 282 269 257 250 250 249 249 246 243 241 235 230 229 227 222 220 221 223 226
275 260 255 245 244 251 255 250 249 268 263 250 272 285 278 287 294 291 300 292 277 281 279 266 257 258 256 251 247 239 230 227 226 222 218 217 219 222
286 277 270 272 267 255 252 232 217 211 236 254 277 295 287 284 269 261 269 287 290 277 287 276 271 266 260 255 252 244 234 227 224 220 219 218 218 220
278 288 291 289 295 288 290 270 212 202 214 223 241 256 272 262 254 251 261 295 294 284 268 280 264 263 262 251 256 253 240 229 223 218 213 213 216 219
262 279 304 325 333 303 312 325 303 277 235 215 226 243 249 253 256 264 252 246 253 260 259 279 274 266 265 267 267 255 238 227 224 219 211 209 211 216
274 252 264 301 313 301 300 312 293 286 267 244 233 249 250 243 228 236 242 256 272 270 197 256 272 273 280 279 276 257 238 227 220 216 212 209 210 213
305 296 278 285 299 308 310 291 299 302 294 279 266 269 274 273 255 235 268 270 284 281 230 224 263 278 282 284 288 262 235 226 220 216 214 209 207 208
324 320 314 307 308 317 289 271 286 291 307 318 311 301 285 283 272 225 212 216 248 273 260 219 248 254 297 289 293 298 247 240 229 225 217 210 203 193
315 309 303 312 312 306 294 265 266 277 291 294 295 298 300 297 282 254 222 204 212 243 251 196 223 219 223 287 318 310 237 213 208 231 225 215 203 188
274 282 296 312 315 313 302 289 291 297 296 305 305 294 287 283 281 272 252 229 223 233 250 213 207 211 211 254 282 308 291 243 199 200 195 188 197 196
279 294 305 309 312 312 308 307 317 324 305 299 290 281 271 271 285 298 297 275 273 269 265 233 217 222 196 214 241 248 262 280 223 194 185 182 188 177
322 318 319 318 321 315 322 329 331 310 272 272 282 287 297 303 294 286 291 306 313 307 306 288 241 199 214 232 217 237 221 226 216 187 176 192 195 190
326 343 356 354 349 346 345 342 343 352 341 313 305 311 321 327 311 313 306 309 276 289 313 325 320 267 220 216 234 241 237 236 219 177 153 188 237 214
56 7 343 340 330 332 337 335 335 335 328 322 323 322 324 328 327 333 338 319 285 283 292 302 336 0 3 336 237 214 224 222 229 165 149 165 250 247
73 349 327 322 321 324 326 323 320 322 326 332 324 320 326 330 330 326 331 340 320 300 294 297 305 191 315 306 311 274 191 199 158 140 167 175 220 249
100 292 294 297 305 316 323 324 324 333 341 340 335 330 329 323 320 316 307 308 305 318 328 329 304 247 217 227 261 298 262 193 172 182 202 209 257 288
245 261 268 283 301 310 319 324 329 331 332 330 327 325 328 329 322 318 312 310 309 320 321 303 286 284 257 107 5 312 315 283 194 188 184 174 242 313
239 244 259 266 276 295 327 338 341 335 332 330 323 320 331 344 325 315 312 311 306 297 292 291 309 351 43 130 254 284 308 335 356 315 250 202 188 197
235 237 248 271 274 273 294 309 314 314 317 323 328 331 337 328 311 303 295 287 283 292 304 314 334 358 317 205 239 265 283 303 333 1 329 297 231 234